Home > Weather > Rio Branco > Past weeks

Flag for Brazil Past Weather in Rio Branco, Acre, Brazil — Yesterday and Last 2 Weeks

Now
86 °F

Partly sunny.


Feels Like: 92 °F
Forecast: 66 / 89 °F
Wind: 5 mph from Southwest

Location: Rio Branco Airport

Current Time: May 26, 2016 at 1:29:05 PM

Latest Report: May 26, 2016 at 1:00 PM


Visibility: N/A

Pressure: 29.92 "Hg

Humidity: 62%

Dew Point: 72 °F

Location of Rio BrancoLocation

Past Weather in Rio Branco — Graph

°F

Rio Branco Temperature Yesterday

Maximum temperature yesterday: 84 °F (at 1:00 PM)
Minimum temperature yesterday: 64 °F (at 4:00 AM)
Average temperature yesterday: 74 °F

High & Low Weather Summary for the Past Weeks

 TemperatureHumidityPressure
High90 °F (May 15, 1:00 PM)100% (May 11, 8:00 PM)30.15 "Hg (May 11, 8:00 PM)
Low61 °F (May 24, 4:00 AM)57% (May 24, 11:00 AM)29.83 "Hg (May 11, 3:00 PM)
Average76 °F89%29.97 "Hg
* Reported May 11 12:00 PM — May 26 12:00 PM, Rio Branco, Weather by CustomWeather, © 2016

Note: Actual official high and low records may vary slightly from our data, if they occured in-between our weather recording intervals... More about our weather records

Advertising

Rio Branco Weather History for the Previous 24 Hours

Scroll right to see more
 ConditionsComfort  
Time TempWeatherWind HumidityBarometerVisibility
12:00 PM
Thu, May 26
86 °FPartly sunny.3 mph62%29.95 "HgN/A
11:00 AM84 °FPartly sunny.3 mph66%29.98 "HgN/A
10:00 AM82 °FScattered clouds.3 mph66%29.98 "HgN/A
9:00 AM81 °FSunny.2 mph70%30.01 "Hg10 mi
8:00 AM77 °FSunny.3 mph79%29.98 "Hg10 mi
7:00 AM70 °FSunny.2 mph100%29.98 "Hg10 mi
6:00 AM66 °FSunny.No wind100%29.95 "Hg10 mi
5:00 AM66 °FClear.No wind100%29.92 "Hg10 mi
4:00 AM66 °FClear.2 mph100%29.92 "Hg10 mi
3:00 AM68 °FClear.No wind94%29.92 "Hg10 mi
2:00 AM70 °FClear.3 mph100%29.95 "Hg10 mi
1:00 AM70 °FClear.2 mph94%29.95 "Hg10 mi
12:00 AM70 °FClear.2 mph94%29.98 "Hg10 mi
11:00 PM
Wed, May 25
70 °FClear.2 mph100%29.98 "Hg10 mi
10:00 PM72 °FClear.2 mph94%30.01 "Hg10 mi
9:00 PM72 °FClear.No wind94%29.98 "Hg10 mi
8:00 PM72 °FClear.3 mph94%29.98 "Hg10 mi
7:00 PM72 °FClear.3 mph94%29.98 "Hg10 mi
6:00 PM75 °FClear.2 mph83%29.95 "Hg10 mi
5:00 PM82 °FPassing clouds.3 mph66%29.95 "HgN/A
4:00 PM84 °FPassing clouds.2 mph58%29.95 "HgN/A
3:00 PM84 °FScattered clouds.3 mph62%29.95 "HgN/A
2:00 PM82 °FPartly sunny.3 mph62%29.98 "HgN/A
1:00 PM84 °FPartly sunny.3 mph58%29.98 "HgN/A
Weather by CustomWeather, © 2016

See weather overviewHow to use our weather pages